EW4415 Weather Reports


Display with metric or nautical units.
time (UTC)temp
F
wind
direction
speed
MPH
gust
MPH
rain 1hr
in
rain 24hr
in
rain mn
in
humidity
%
barometer
mb
20260904064552 52 290 0.0 0.0 0.00 0.00 0.00 1 999.8
20260904063054 51 290 0.0 0.0 0.00 0.00 0.00 1 999.8
20260904061543 49 290 0.0 0.0 0.00 0.00 0.00 1 999.8
20260904060038 48 290 0.0 0.0 0.00 0.00 0.00 1 999.9
20260904054535 47 290 0.0 0.0 0.00 0.00 0.00 1 1000.1
20260904053036 46 290 0.0 0.0 0.00 0.00 0.00 1 1000.2
20260904051533 45 290 0.0 0.0 0.00 0.00 0.00 1 1000.4
20260904050032 44 290 0.0 0.0 0.00 0.00 0.00 1 1000.5
20260904044519 43 290 0.0 0.0 0.00 0.00 0.00 1 1000.7
20260904043013 43 290 0.0 0.0 0.00 0.00 0.00 1 1000.9
20260904041508 42 290 0.0 0.0 0.00 0.00 0.00 1 1001.2
20260904040004 42 290 0.0 0.0 0.00 0.00 0.00 1 1001.4
20260904034600 42 290 0.0 0.0 0.00 0.00 0.00 1 1001.5
20260904033055 42 290 0.0 0.0 0.00 0.00 0.00 1 1001.7
20260904031551 42 290 0.0 0.0 0.00 0.00 0.00 1 1001.8
20260904030047 42 290 0.0 0.0 0.00 0.00 0.00 1 1002.0
20260904024544 41 290 0.0 0.0 0.00 0.00 0.00 1 1002.1
20260904023038 41 290 0.0 0.0 0.00 0.00 0.00 1 1002.3
20260904021539 41 290 0.0 0.0 0.00 0.00 0.00 1 1002.4
20260904020030 41 290 0.0 0.0 0.00 0.00 0.00 1 1002.4
20260904014526 42 290 0.0 0.0 0.00 0.00 0.00 1 1002.5
20260904013021 42 290 0.0 0.0 0.00 0.00 0.00 1 1002.7
20260904011524 42 290 0.0 0.0 0.00 0.00 0.00 1 1002.8
20260904010013 42 290 0.0 0.0 0.00 0.00 0.00 1 1003.1
20260904004513 42 290 0.0 0.0 0.00 0.00 0.00 1 1003.3
20260904003004 42 290 0.0 0.0 0.00 0.00 0.00 1 1003.4
20260904001601 43 290 0.0 0.0 0.00 0.00 0.00 1 1003.5
20260904000138 43 290 0.0 0.0 0.00 0.00 0.00 1 1003.6
20260903234553 43 290 0.0 0.0 0.00 0.00 0.00 1 1003.8
20260903233047 43 290 0.0 0.0 0.00 0.00 0.00 1 1003.9
20260903231547 44 290 0.0 0.0 0.00 0.00 0.00 1 1004.1
20260903230038 44 290 0.0 0.0 0.00 0.00 0.00 1 1004.2
20260903224544 44 290 0.0 0.0 0.00 0.00 0.00 1 1004.3
20260903223033 45 290 0.0 0.0 0.00 0.00 0.00 1 1004.4
20260903221525 45 290 0.0 0.0 0.00 0.00 0.00 1 1004.6
20260903220021 46 290 0.0 0.0 0.00 0.00 0.00 1 1004.6
20260903214522 46 290 0.0 0.0 0.00 0.00 0.00 1 1004.8
20260903213021 47 290 0.0 0.0 0.00 0.00 0.00 1 1004.9
20260903211507 48 290 0.0 0.0 0.00 0.00 0.00 1 1004.9
20260903210002 48 290 0.0 0.0 0.00 0.00 0.00 1 1005.0
20260903204559 49 290 0.0 0.0 0.00 0.00 0.00 1 1004.9
20260903203053 50 290 0.0 0.0 0.00 0.00 0.00 1 1004.9
20260903201550 50 290 0.0 0.0 0.00 0.00 0.00 1 1005.1
20260903200046 51 290 0.0 0.0 0.00 0.00 0.00 1 1005.2
20260903194548 51 290 0.0 0.0 0.00 0.00 0.00 1 1005.2
20260903193042 52 290 0.0 0.0 0.00 0.00 0.00 1 1005.2
20260903191541 52 290 0.0 0.0 0.00 0.00 0.00 1 1005.0
20260903190029 53 290 0.0 0.0 0.00 0.00 0.00 1 1005.2
20260903184525 53 290 0.0 0.0 0.00 0.00 0.00 1 1005.2
20260903183023 54 286 0.0 2.0 0.00 0.00 0.00 1 1005.2
20260903181533 54 301 0.0 1.0 0.00 0.00 0.00 6 1005.1
20260903180016 55 293 0.0 1.0 0.00 0.00 0.00 7 1005.2
20260903174510 55 327 0.0 4.0 0.00 0.00 0.00 15 1005.0
20260903173006 56 219 0.0 1.0 0.00 0.00 0.00 23 1005.1
20260903171509 56 234 0.0 2.0 0.00 0.00 0.00 25 1005.1
20260903170107 57 289 0.0 2.0 0.00 0.00 0.00 20 1005.1
20260903164558 57 348 0.0 5.0 0.00 0.00 0.00 26 1005.0
20260903163102 58 360 0.0 4.0 0.00 0.00 0.00 36 1005.0
20260903161548 58 97 0.0 5.0 0.00 0.00 0.00 34 1005.0
20260903160040 59 300 0.0 6.0 0.00 0.00 0.00 40 1004.9
20260903154524 59 92 0.0 12.0 0.00 0.00 0.00 42 1004.9
20260903153020 60 321 0.0 6.0 0.00 0.00 0.00 44 1004.9
20260903151516 60 25 0.0 9.0 0.00 0.00 0.00 47 1004.9
20260903150011 61 242 1.0 10.0 0.00 0.00 0.00 50 1004.9
20260903144507 61 338 0.0 10.0 0.00 0.00 0.00 47 1005.0
20260903143002 61 73 0.0 7.0 0.00 0.00 0.00 45 1005.0
20260903141601 61 19 1.0 11.0 0.00 0.00 0.00 50 1005.0
20260903140055 62 71 1.0 8.0 0.00 0.00 0.00 55 1005.0
20260903134550 62 92 0.0 10.0 0.00 0.00 0.00 59 1005.0
20260903133046 63 260 0.0 10.0 0.00 0.00 0.00 59 1004.9
20260903131543 62 148 2.0 13.0 0.00 0.00 0.00 59 1004.9
20260903130038 63 355 0.0 12.0 0.00 0.00 0.00 60 1005.0
20260903124533 63 98 1.0 14.0 0.00 0.00 0.00 60 1005.1
20260903123033 63 348 0.0 7.0 0.00 0.00 0.00 60 1005.1
20260903121524 63 285 1.0 12.0 0.00 0.00 0.00 60 1005.1
20260903120020 63 65 0.0 9.0 0.00 0.00 0.00 59 1005.2
20260903114519 63 206 1.0 11.0 0.00 0.00 0.00 58 1005.1
20260903113012 63 39 1.0 10.0 0.00 0.00 0.00 60 1005.3
20260903111507 64 243 1.0 10.0 0.00 0.00 0.00 60 1005.2
20260903110004 64 54 0.0 9.0 0.00 0.00 0.00 60 1005.2
20260903104615 64 43 0.0 8.0 0.00 0.00 0.00 59 1005.4
20260903103104 63 148 0.0 7.0 0.00 0.00 0.00 58 1005.4
20260903101551 62 9 0.0 15.0 0.00 0.00 0.00 58 1005.5
20260903100046 63 285 0.0 8.0 0.00 0.00 0.00 55 1005.6
20260903094544 62 82 0.0 9.0 0.00 0.00 0.00 48 1005.6
20260903093101 62 279 0.0 12.0 0.00 0.00 0.00 57 1005.7
20260903091534 63 325 0.0 8.0 0.00 0.00 0.00 52 1005.7
20260903090030 63 34 0.0 6.0 0.00 0.00 0.00 49 1005.7
20260903084523 62 302 0.0 7.0 0.00 0.00 0.00 36 1005.8
20260903083020 61 23 0.0 9.0 0.00 0.00 0.00 27 1005.9
20260903081527 61 307 1.0 7.0 0.00 0.00 0.00 25 1006.0
20260903080010 62 9 0.0 6.0 0.00 0.00 0.00 1 1006.0
20260903074505 62 54 0.0 7.0 0.00 0.00 0.00 1 1006.0
20260903073001 61 38 0.0 4.0 0.00 0.00 0.00 1 1006.0
20260903071626 61 321 0.0 2.0 0.00 0.00 0.00 1 1006.0